When you browse on this site, cookies collect data to enhance your experience and personalize the content and advertising you see.
Visit our Privacy Policy to learn more. By continuing to use the site, you agree to this use of cookies and data.
  • In Switzerland
  • List of Countries
  • For 7 days
  • Water Temperature
  • Satellite Maps
  • Weather Map
  • Weather Widgets
  • user-avatar
    Login

    Hourly Weather Bandar Abbas

    Today, 10 December, Monday

    Time Temperature Precipitation Wind Pressure Humidity
    00:00 +23°C° 0 mm 2 mps 760 mmHg 30%
    01:00 +21°C° 0 mm 2 mps 760 mmHg 30%
    02:00 +21°C° 0 mm 2 mps 760 mmHg 29%
    03:00 +21°C° 0 mm 2 mps 760 mmHg 29%
    04:00 +21°C° 0 mm 3 mps 760 mmHg 27%
    05:00 +20°C° 0 mm 2 mps 760 mmHg 28%
    06:00 +20°C° 0 mm 2 mps 760 mmHg 28%
    07:00 +20°C° 0 mm 2 mps 760 mmHg 29%
    08:00 +23°C° 0 mm 2 mps 760 mmHg 26%
    09:00 +25°C° 0 mm 1 mps 760 mmHg 22%
    10:00 +27°C° 0 mm 1 mps 760 mmHg 19%
    11:00 +27°C° 0 mm 1 mps 760 mmHg 18%
    12:00 +28°C° 0 mm 1 mps 760 mmHg 18%
    13:00 +28°C° 0 mm 1 mps 759 mmHg 17%
    14:00 +28°C° 0 mm 1 mps 759 mmHg 18%
    15:00 +28°C° 0 mm 1 mps 759 mmHg 18%
    16:00 +28°C° 0 mm 2 mps 758 mmHg 18%
    17:00 +27°C° 0 mm 2 mps 759 mmHg 22%
    18:00 +26°C° 0 mm 2 mps 759 mmHg 26%
    19:00 +25°C° 0 mm 2 mps 759 mmHg 31%
    20:00 +24°C° 0 mm 1 mps 760 mmHg 32%
    21:00 +24°C° 0 mm 1 mps 760 mmHg 34%
    22:00 +23°C° 0 mm 1 mps 760 mmHg 36%
    23:00 +23°C° 0 mm 1 mps 760 mmHg 37%

    Tomorrow, 11 December, Tuesday

    Time Temperature Precipitation Wind Pressure Humidity
    00:00 +22°C° 0 mm 1 mps 760 mmHg 37%
    01:00 +22°C° 0 mm 1 mps 760 mmHg 38%
    02:00 +22°C° 0 mm 1 mps 759 mmHg 38%
    03:00 +22°C° 0 mm 1 mps 759 mmHg 38%
    04:00 +22°C° 0 mm 1 mps 759 mmHg 38%
    05:00 +21°C° 0 mm 2 mps 759 mmHg 38%
    06:00 +20°C° 0 mm 2 mps 760 mmHg 39%
    07:00 +20°C° 0 mm 2 mps 760 mmHg 39%
    08:00 +23°C° 0 mm 2 mps 760 mmHg 35%
    09:00 +25°C° 0 mm 2 mps 760 mmHg 32%
    10:00 +26°C° 0 mm 2 mps 761 mmHg 28%
    11:00 +27°C° 0 mm 2 mps 760 mmHg 27%
    12:00 +28°C° 0 mm 1 mps 760 mmHg 25%
    13:00 +29°C° 0 mm 1 mps 759 mmHg 24%
    14:00 +29°C° 0 mm 2 mps 759 mmHg 24%
    15:00 +29°C° 0 mm 2 mps 759 mmHg 24%
    16:00 +29°C° 0 mm 2 mps 758 mmHg 24%
    17:00 +28°C° 0 mm 2 mps 759 mmHg 28%
    18:00 +27°C° 0 mm 2 mps 759 mmHg 32%
    19:00 +25°C° 0 mm 1 mps 760 mmHg 37%
    20:00 +25°C° 0 mm 1 mps 760 mmHg 37%
    21:00 +24°C° 0 mm 1 mps 761 mmHg 38%
    22:00 +24°C° 0 mm 1 mps 761 mmHg 39%
    23:00 +23°C° 0 mm 2 mps 761 mmHg 40%

    Day after tomorrow, 12 December, Wednesday

    Time Temperature Precipitation Wind Pressure Humidity
    00:00 +23°C° 0 mm 2 mps 761 mmHg 41%
    01:00 +23°C° 0 mm 2 mps 761 mmHg 43%
    02:00 +21°C° 0 mm 2 mps 761 mmHg 43%
    03:00 +21°C° 0 mm 2 mps 761 mmHg 43%
    04:00 +20°C° 0 mm 2 mps 761 mmHg 43%
    05:00 +20°C° 0 mm 2 mps 761 mmHg 42%
    06:00 +21°C° 0 mm 1 mps 762 mmHg 41%
    07:00 +21°C° 0 mm 1 mps 762 mmHg 40%
    08:00 +23°C° 0 mm 1 mps 763 mmHg 34%
    09:00 +25°C° 0 mm 1 mps 763 mmHg 29%
    10:00 +27°C° 0 mm 1 mps 764 mmHg 23%
    11:00 +27°C° 0 mm 1 mps 763 mmHg 22%
    12:00 +28°C° 0 mm 1 mps 763 mmHg 21%
    13:00 +29°C° 0 mm 1 mps 762 mmHg 20%
    14:00 +29°C° 0 mm 1 mps 762 mmHg 20%
    15:00 +29°C° 0 mm 1 mps 762 mmHg 20%
    16:00 +29°C° 0 mm 1 mps 761 mmHg 19%
    17:00 +28°C° 0 mm 1 mps 762 mmHg 23%
    18:00 +26°C° 0 mm 1 mps 762 mmHg 27%
    19:00 +25°C° 0 mm 1 mps 763 mmHg 31%
    20:00 +25°C° 0 mm 1 mps 763 mmHg 32%
    21:00 +24°C° 0 mm 1 mps 763 mmHg 33%
    22:00 +23°C° 0 mm 1 mps 764 mmHg 34%
    23:00 +23°C° 0 mm 1 mps 763 mmHg 34%

    13 December, Thursday

    Time Temperature Precipitation Wind Pressure Humidity
    00:00 +21°C° 0 mm 0 mps 763 mmHg 34%
    01:00 +20°C° 0 mm 0 mps 763 mmHg 33%
    02:00 +20°C° 0 mm 0 mps 763 mmHg 33%
    03:00 +19°C° 0 mm 0 mps 763 mmHg 32%
    04:00 +19°C° 0 mm 0 mps 763 mmHg 32%
    05:00 +21°C° 0 mm 1 mps 763 mmHg 32%
    06:00 +20°C° 0 mm 1 mps 764 mmHg 31%
    07:00 +20°C° 0 mm 1 mps 764 mmHg 31%
    08:00 +22°C° 0 mm 1 mps 765 mmHg 27%
    09:00 +24°C° 0 mm 1 mps 765 mmHg 23%
    10:00 +26°C° 0 mm 1 mps 765 mmHg 18%
    11:00 +27°C° 0 mm 1 mps 765 mmHg 19%
    12:00 +27°C° 0 mm 2 mps 764 mmHg 20%
    13:00 +28°C° 0 mm 2 mps 764 mmHg 20%
    14:00 +28°C° 0 mm 2 mps 763 mmHg 22%
    15:00 +28°C° 0 mm 2 mps 763 mmHg 25%
    16:00 +27°C° 0 mm 2 mps 763 mmHg 27%
    17:00 +26°C° 0 mm 1 mps 763 mmHg 33%
    18:00 +25°C° 0 mm 1 mps 764 mmHg 38%
    19:00 +24°C° 0 mm 1 mps 764 mmHg 44%
    20:00 +24°C° 0 mm 1 mps 764 mmHg 47%
    21:00 +23°C° 0 mm 1 mps 764 mmHg 50%
    22:00 +22°C° 0 mm 1 mps 765 mmHg 53%
    23:00 +22°C° 0 mm 1 mps 764 mmHg 54%

    14 December, Friday

    Time Temperature Precipitation Wind Pressure Humidity
    00:00 +22°C° 0 mm 1 mps 764 mmHg 54%
    01:00 +21°C° 0 mm 1 mps 764 mmHg 54%
    02:00 +20°C° 0 mm 2 mps 764 mmHg 54%
    03:00 +20°C° 0 mm 2 mps 764 mmHg 54%
    04:00 +19°C° 0 mm 2 mps 764 mmHg 54%
    05:00 +19°C° 0 mm 2 mps 764 mmHg 53%
    06:00 +19°C° 0 mm 2 mps 764 mmHg 53%
    07:00 +19°C° 0 mm 2 mps 765 mmHg 52%
    08:00 +20°C° 0 mm 2 mps 765 mmHg 47%
    09:00 +23°C° 0 mm 2 mps 765 mmHg 42%
    10:00 +25°C° 0 mm 2 mps 765 mmHg 37%
    11:00 +25°C° 0 mm 2 mps 765 mmHg 36%
    12:00 +26°C° 0 mm 1 mps 764 mmHg 35%
    13:00 +26°C° 0 mm 1 mps 764 mmHg 34%
    14:00 +27°C° 0 mm 1 mps 764 mmHg 34%
    15:00 +27°C° 0 mm 2 mps 763 mmHg 35%
    16:00 +27°C° 0 mm 2 mps 763 mmHg 35%
    17:00 +26°C° 0 mm 2 mps 764 mmHg 42%
    18:00 +25°C° 0 mm 2 mps 764 mmHg 48%
    19:00 +24°C° 0 mm 1 mps 765 mmHg 55%
    20:00 +23°C° 0 mm 1 mps 765 mmHg 59%
    21:00 +23°C° 0 mm 1 mps 765 mmHg 64%
    22:00 +20°C° 0 mm 0 mps 765 mmHg 68%
    23:00 +22°C° 0 mm 1 mps 765 mmHg 68%

    15 December, Saturday

    Time Temperature Precipitation Wind Pressure Humidity
    00:00 +22°C° 0 mm 1 mps 764 mmHg 68%
    01:00 +21°C° 0 mm 1 mps 764 mmHg 68%
    02:00 +21°C° 0 mm 1 mps 764 mmHg 67%
    03:00 +21°C° 0 mm 1 mps 764 mmHg 66%
    04:00 +20°C° 0 mm 1 mps 764 mmHg 65%
    05:00 +20°C° 0 mm 1 mps 764 mmHg 64%
    06:00 +20°C° 0 mm 1 mps 764 mmHg 63%
    07:00 +19°C° 0 mm 1 mps 765 mmHg 62%
    08:00 +21°C° 0 mm 1 mps 765 mmHg 55%
    09:00 +23°C° 0 mm 1 mps 765 mmHg 48%
    10:00 +24°C° 0 mm 1 mps 766 mmHg 41%
    11:00 +25°C° 0 mm 1 mps 765 mmHg 39%
    12:00 +25°C° 0 mm 1 mps 765 mmHg 37%
    13:00 +26°C° 0 mm 1 mps 764 mmHg 35%
    14:00 +26°C° 0 mm 1 mps 764 mmHg 36%
    15:00 +26°C° 0 mm 1 mps 764 mmHg 36%
    16:00 +26°C° 0 mm 2 mps 763 mmHg 37%
    17:00 +25°C° 0 mm 1 mps 764 mmHg 42%
    18:00 +25°C° 0 mm 1 mps 764 mmHg 47%
    19:00 +24°C° 0 mm 1 mps 765 mmHg 52%
    20:00 +23°C° 0 mm 1 mps 765 mmHg 54%
    21:00 +23°C° 0 mm 1 mps 765 mmHg 57%
    22:00 +22°C° 0 mm 1 mps 765 mmHg 59%
    23:00 +22°C° 0 mm 1 mps 765 mmHg 59%
    Show more